This is the latest recevied weather packets stored in our database for station/object KA8OAD-10. If no packets are shown the sender has not sent any weather packets the latest 10 day(s).
| Time | Temp. | Humidity | Pressure | Rain* | Wind** | Luminosity | Snow |
|---|---|---|---|---|---|---|---|
| 1787408161 | 21.11° C | 90% | 1012.3 hPa | 0 mm | - | 77 W/m² | - |
| 1787407861 | 20.56° C | 91% | 1012.4 hPa | 0 mm | - | 74 W/m² | - |
| 1787407264 | 20.56° C | 92% | 1012.4 hPa | 0 mm | - | 58 W/m² | - |
| 1787406963 | 20° C | 92% | 1012.5 hPa | 0 mm | - | 54 W/m² | - |
| 1787406362 | 20° C | 92% | 1012.6 hPa | 0 mm | - | 53 W/m² | - |
| 1787405493 | 19.44° C | 92% | 1012.6 hPa | 0 mm | - | 84 W/m² | - |
| 1787405461 | 19.44° C | 92% | 1012.6 hPa | 0 mm | - | 84 W/m² | - |
| 1787405160 | 19.44° C | 92% | 1012.7 hPa | 0 mm | - | 46 W/m² | - |
| 1787403661 | 18.89° C | 92% | 1013.2 hPa | 0 mm | - | 30 W/m² | - |
| 1787403109 | 18.89° C | 92% | 1013.3 hPa | 0 mm | - | 47 W/m² | - |
| 1787403064 | 18.89° C | 92% | 1013.3 hPa | 0 mm | - | 47 W/m² | - |
| 1787402463 | 18.89° C | 92% | 1013.3 hPa | 0 mm | - | 44 W/m² | - |
| 1787402163 | 18.89° C | 91% | 1013.4 hPa | 0 mm | - | 42 W/m² | - |
| 1787401862 | 18.89° C | 91% | 1013.5 hPa | 0 mm | - | 32 W/m² | - |
| 1787400776 | 18.33° C | 90% | 1013.6 hPa | 0 mm | - | 19 W/m² | - |
| 1787400660 | 18.33° C | 91% | 1013.5 hPa | 0 mm | - | 42 W/m² | - |
| 1787400365 | 18.33° C | 90% | 1013.5 hPa | 0 mm | - | 32 W/m² | - |
| 1787400118 | 18.33° C | 90% | 1013.6 hPa | 0 mm | - | 19 W/m² | - |
| 1787400064 | 18.33° C | 90% | 1013.6 hPa | 0 mm | - | 19 W/m² | - |
| 1787399461 | 18.33° C | 90% | 1013.5 hPa | 0 mm | - | 11 W/m² | - |
| 1787399161 | 18.33° C | 90% | 1013.5 hPa | 0 mm | - | 9 W/m² | - |
| 1787398865 | 18.33° C | 90% | 1013.5 hPa | 0 mm | - | 7 W/m² | - |
| 1787398565 | 18.33° C | 90% | 1013.5 hPa | 0 mm | - | 0 W/m² | - |
| 1787398263 | 18.33° C | 90% | 1013.3 hPa | 0 mm | - | 0 W/m² | - |
| 1787396164 | 18.89° C | 90% | 1013.1 hPa | 0 mm | - | 0 W/m² | - |
* Rain latest hour (hover to see other rain measurements)
** Current wind speed in m/s (hover to see current wind gust speed)